Tourist.f.b.terzo — IQAQ — position and weather

sailwx.info

Track history (hours):
 
Tides and Currents Weather Stations Pressure Air Temp Water Temp Dewpoint Dewpoint Depression Visibility Wind Speed Wind Dir Waves Ship Positions

Tourist.f.b.terzo

Last reported at 2014-Sep-27 18:05 UTC. Time now 2014-Oct-02 16:43 UTC.
Position N 40°45' E 013°54'.

Length 53 m; draft 1.8 m.

Type: Cargo ship. MMSI: 247048900.

Date/timePositionNaut miles runAvg speedWind from/ knotsBaromVisibWave heightAir tempDewpointWater temp
2014-Sep-27 18:05N 40°45' E 013°54'0 0.0
2014-Sep-27 17:33N 40°45' E 013°54'0 0.0
2014-Sep-27 16:33N 40°45' E 013°54'  
2014-Sep-23 21:04N 40°45' E 013°54'0 0.0
2014-Sep-23 20:33N 40°45' E 013°54'0 0.0
2014-Sep-23 19:33N 40°45' E 013°54'0 0.0
2014-Sep-23 17:07N 40°45' E 013°54'0 0.0
2014-Sep-23 16:33N 40°45' E 013°54'0 0.0
2014-Sep-23 15:33N 40°45' E 013°54'0 0.0
2014-Sep-23 14:33N 40°45' E 013°54'0 0.0
2014-Sep-23 11:33N 40°45' E 013°54'0 0.0
2014-Sep-23 10:33N 40°45' E 013°54'5 5.3
2014-Sep-23 09:33N 40°47' E 014°01'5 5.3
2014-Sep-23 08:33N 40°49' E 014°07'4 3.8
2014-Sep-23 07:33N 40°46' E 014°04'8 7.5
2014-Sep-23 06:33N 40°45' E 013°54'7 7.4
2014-Sep-23 05:33N 40°47' E 014°04'4 3.7
2014-Sep-23 04:33N 40°49' E 014°07'6 5.7
2014-Sep-23 03:33N 40°47' E 014°01'5 4.9
2014-Sep-23 02:33N 40°45' E 013°54'5 4.9
2014-Sep-23 01:33N 40°46' E 014°01'6 5.6
2014-Sep-23 00:33N 40°49' E 014°07'3 3.5
2014-Sep-22 23:33N 40°46' E 014°05'6 6.2
2014-Sep-22 22:33N 40°46' E 013°57'2 1.8
2014-Sep-22 21:33N 40°45' E 013°54'7 0.5
2014-Sep-22 06:11N 40°46' E 014°04'1 0.6
2014-Sep-22 04:25N 40°46' E 014°02'2 1.1
2014-Sep-22 02:29N 40°46' E 013°59'4 0.3
2014-Sep-21 13:27N 40°45' E 013°54'0 0.0
2014-Sep-20 18:20N 40°45' E 013°54'0 0.0
2014-Sep-20 17:33N 40°45' E 013°54'4 0.4
2014-Sep-20 08:33N 40°46' E 013°59'  
2014-Sep-17 21:13N 40°45' E 013°54'0 0.0
2014-Sep-17 20:33N 40°45' E 013°54'0 0.0
2014-Sep-17 19:33N 40°45' E 013°54'0 0.0
2014-Sep-17 18:34N 40°45' E 013°54'  
Track history (hours):
 
Tides and Currents Weather Stations Pressure Air Temp Water Temp Dewpoint Dewpoint Depression Visibility Wind Speed Wind Dir Waves Ship Positions

Tourist.f.b.terzo

Last reported at 2014-Sep-27 18:05 UTC. Time now 2014-Oct-02 16:43 UTC.
Position N 40°45' E 013°54'.

Length 53 m; draft 1.8 m.

Type: Cargo ship. MMSI: 247048900.

Date/timePositionNaut miles runAvg speedWind from/ knotsBaromVisibWave heightAir tempDewpointWater temp
2014-Sep-27 18:05N 40°45' E 013°54'0 0.0
2014-Sep-27 17:33N 40°45' E 013°54'0 0.0
2014-Sep-27 16:33N 40°45' E 013°54'  
2014-Sep-23 21:04N 40°45' E 013°54'0 0.0
2014-Sep-23 20:33N 40°45' E 013°54'0 0.0
2014-Sep-23 19:33N 40°45' E 013°54'0 0.0
2014-Sep-23 17:07N 40°45' E 013°54'0 0.0
2014-Sep-23 16:33N 40°45' E 013°54'0 0.0
2014-Sep-23 15:33N 40°45' E 013°54'0 0.0
2014-Sep-23 14:33N 40°45' E 013°54'0 0.0
2014-Sep-23 11:33N 40°45' E 013°54'0 0.0
2014-Sep-23 10:33N 40°45' E 013°54'5 5.3
2014-Sep-23 09:33N 40°47' E 014°01'5 5.3
2014-Sep-23 08:33N 40°49' E 014°07'4 3.8
2014-Sep-23 07:33N 40°46' E 014°04'8 7.5
2014-Sep-23 06:33N 40°45' E 013°54'7 7.4
2014-Sep-23 05:33N 40°47' E 014°04'4 3.7
2014-Sep-23 04:33N 40°49' E 014°07'6 5.7
2014-Sep-23 03:33N 40°47' E 014°01'5 4.9
2014-Sep-23 02:33N 40°45' E 013°54'5 4.9
2014-Sep-23 01:33N 40°46' E 014°01'6 5.6
2014-Sep-23 00:33N 40°49' E 014°07'3 3.5
2014-Sep-22 23:33N 40°46' E 014°05'6 6.2
2014-Sep-22 22:33N 40°46' E 013°57'2 1.8
2014-Sep-22 21:33N 40°45' E 013°54'7 0.5
2014-Sep-22 06:11N 40°46' E 014°04'1 0.6
2014-Sep-22 04:25N 40°46' E 014°02'2 1.1
2014-Sep-22 02:29N 40°46' E 013°59'4 0.3
2014-Sep-21 13:27N 40°45' E 013°54'0 0.0
2014-Sep-20 18:20N 40°45' E 013°54'0 0.0
2014-Sep-20 17:33N 40°45' E 013°54'4 0.4
2014-Sep-20 08:33N 40°46' E 013°59'  
2014-Sep-17 21:13N 40°45' E 013°54'0 0.0
2014-Sep-17 20:33N 40°45' E 013°54'0 0.0
2014-Sep-17 19:33N 40°45' E 013°54'0 0.0
2014-Sep-17 18:34N 40°45' E 013°54'  

Dump ship's entire track history